Weather History for Springfield, MO

Change the Weather History Date:

Saturday, August 9, 2014

  Actual Average Record
Temperature  
Mean Temperature 77 °F 79 °F  
Max Temperature 87 °F 90 °F 104 °F (1936)
Min Temperature 67 °F 68 °F 54 °F (1975)
Degree Days  
Heating Degree Days 0 0  
Month to date heating degree days 0 0  
Since 1 June heating degree days 0 9  
Since 1 July heating degree days 0 0  
Cooling Degree Days 12 14  
Month to date cooling degree days 119 126  
Year to date cooling degree days 898 914  
Since 1 June cooling degree days 705 799  
Growing Degree Days 26 (Base 50)    
Moisture  
Dew Point 69 °F    
Average Humidity 77    
Maximum Humidity 93    
Minimum Humidity 61    
Precipitation  
Precipitation T in 0.11 in 2.02 in (1916)
Month to date precipitation 1.12 0.91  
Year to date precipitation 21.13 27.47  
Snow  
Snow 0.00 in - - ()
Month to date snowfall 0.0  
Since 1 June snowfall 0.0  
Since 1 July snowfall 0.0  
Snow Depth 0.00 in    
Sea Level Pressure  
Sea Level Pressure 29.97 in    
Wind  
Wind Speed 3 mph (NNE)    
Max Wind Speed 12 mph    
Max Gust Speed 16 mph    
Visibility 10 miles    
Events Rain    
T = Trace of Precipitation, MM = Missing Value Source: NWS Daily Summary

Daily Weather History Graph

Daily Weather History Graph

Search for Another Location

Airport:

Trip Planner

Search our weather history database for the weather conditions in past years. The results will help you decide how hot, cold, wet, or windy it might be!

Date:

Astronomy

Aug. 09, 2014 Rise Set
Actual Time 6:24 AM CDT 8:12 PM CDT
Civil Twilight 5:56 AM CDT 8:40 PM CDT
Nautical Twilight 5:22 AM CDT 9:14 PM CDT
Astronomical Twilight 4:46 AM CDT 9:50 PM CDT
Moon 7:15 PM CDT (8/9) 5:06 AM CDT (8/9)
Length of Visible Light 14h 43m
Length of Day
13h 47m
Waxing Gibbous, 98% of the Moon is Illuminated
Aug 9
Waxing Gibbous
Aug 10
Full
Aug 17
Last Quarter
Aug 25
New
Sep 2
First Quarter

Hourly Weather History & Observations

Time (CDT) Temp. Heat Index Dew Point Humidity Pressure Visibility Wind Dir Wind Speed Gust Speed Precip Events Conditions
12:52 AM 72.0 °F - 66.9 °F 84% 29.96 in 10.0 mi NNE 6.9 mph - N/A   Clear
1:52 AM 71.1 °F - 66.9 °F 87% 29.94 in 10.0 mi ENE 6.9 mph - N/A   Clear
2:52 AM 70.0 °F - 66.9 °F 90% 29.94 in 10.0 mi Calm Calm - N/A   Clear
3:52 AM 70.0 °F - 66.9 °F 90% 29.95 in 10.0 mi NE 5.8 mph - N/A   Clear
4:52 AM 69.1 °F - 66.0 °F 90% 29.96 in 10.0 mi Calm Calm - N/A   Mostly Cloudy
5:52 AM 68.0 °F - 64.9 °F 90% 29.97 in 10.0 mi South 3.5 mph - N/A   Clear
6:52 AM 69.1 °F - 66.0 °F 90% 29.97 in 8.0 mi Calm Calm - N/A   Clear
7:52 AM 72.0 °F - 68.0 °F 87% 30.00 in 10.0 mi Calm Calm - N/A   Clear
8:52 AM 75.9 °F - 68.0 °F 76% 29.99 in 10.0 mi Calm Calm - N/A   Clear
9:52 AM 80.1 °F 82.7 °F 68.0 °F 67% 29.99 in 10.0 mi North 3.5 mph - N/A   Clear
10:52 AM 82.0 °F 84.9 °F 68.0 °F 62% 30.00 in 10.0 mi Variable 3.5 mph - N/A   Clear
11:52 AM 84.0 °F 87.8 °F 69.1 °F 61% 30.00 in 10.0 mi North 6.9 mph - N/A   Partly Cloudy
12:52 PM 84.0 °F 87.8 °F 69.1 °F 61% 29.99 in 10.0 mi NW 4.6 mph - N/A   Partly Cloudy
1:52 PM 84.0 °F 87.8 °F 69.1 °F 61% 29.99 in 10.0 mi NW 8.1 mph - N/A   Overcast
2:52 PM 82.9 °F 87.0 °F 70.0 °F 65% 29.97 in 10.0 mi NNW 8.1 mph - N/A   Partly Cloudy
3:52 PM 81.0 °F 84.9 °F 71.1 °F 72% 29.94 in 10.0 mi NE 9.2 mph - 0.00 in Rain Light Rain
4:52 PM 82.0 °F 85.9 °F 70.0 °F 67% 29.97 in 10.0 mi Calm Calm - 0.00 in   Scattered Clouds
5:52 PM 82.0 °F 86.3 °F 71.1 °F 69% 29.98 in 10.0 mi NNE 6.9 mph - N/A   Overcast
6:52 PM 82.9 °F 87.0 °F 70.0 °F 65% 29.96 in 10.0 mi NE 4.6 mph - N/A   Clear
7:52 PM 81.0 °F 84.4 °F 70.0 °F 69% 29.95 in 10.0 mi NNE 4.6 mph - N/A   Clear
8:52 PM 78.1 °F - 70.0 °F 76% 29.94 in 10.0 mi Calm Calm - N/A   Clear
9:52 PM 73.4 °F - 69.8 °F 88% 30.00 in 10.0 mi Calm Calm - N/A   Clear
10:21 PM 73.9 °F - 71.1 °F 91% 30.01 in 10.0 mi SE 3.5 mph - N/A   Mostly Cloudy
11:32 PM 75.0 °F - 72.0 °F 90% 30.02 in 10.0 mi South 5.8 mph - N/A   Overcast
11:52 PM 73.9 °F - 72.0 °F 93% 29.99 in 10.0 mi SSW 5.8 mph - N/A   Overcast